StationID,Date,MaxTemp,MinTemp,Precipitation,Snowfall,SnowDepth
"US1AKBC0003","2008-10-09",,,0.00,0.00,
"US1AKBC0003","2008-10-10",,,150.00,145.00,145.00
"US1AKBC0003","2008-10-11",,,0.00,0.00,127.00
"US1AKBC0003","2008-10-12",,,0.00,,102.00
"US1AKBC0003","2008-10-14",,,23.00,28.00,102.00
"US1AKBC0003","2008-10-15",,,20.00,25.00,127.00
"US1AKBC0003","2008-10-16",,,0.00,0.00,114.00
"US1AKBC0003","2008-10-17",,,0.00,0.00,114.00
"US1AKBC0003","2008-10-18",,,0.00,0.00,102.00
"US1AKBC0003","2008-10-19",,,0.00,0.00,102.00
"US1AKBC0003","2008-10-20",,,3.00,8.00,102.00
"US1AKBC0003","2008-10-21",,,20.00,28.00,127.00
"US1AKBC0003","2008-10-22",,,0.00,5.00,127.00
"US1AKBC0003","2008-10-23",,,0.00,0.00,127.00
"US1AKBC0003","2008-10-24",,,36.00,46.00,165.00
"US1AKBC0003","2008-10-27",,,3.00,20.00,165.00
"US1AKBC0003","2008-10-28",,,0.00,0.00,165.00
"US1AKBC0003","2008-10-29",,,0.00,0.00,152.00
"US1AKBC0003","2008-10-30",,,0.00,0.00,140.00
"US1AKBC0003","2008-10-31",,,0.00,0.00,127.00
"US1AKBC0003","2008-11-01",,,0.00,0.00,114.00
"US1AKBC0003","2008-11-02",,,8.00,10.00,127.00
"US1AKBC0003","2008-11-04",,,0.00,0.00,127.00
"US1AKBC0003","2008-11-05",,,0.00,0.00,127.00
"US1AKBC0003","2008-11-06",,,0.00,0.00,127.00
"US1AKBC0003","2008-11-07",,,0.00,0.00,127.00
"US1AKBC0003","2008-11-08",,,66.00,81.00,203.00
"US1AKBC0003","2008-11-09",,,0.00,0.00,203.00
"US1AKBC0003","2008-11-10",,,3.00,5.00,203.00
"US1AKBC0003","2008-11-11",,,10.00,13.00,216.00
"US1AKBC0003","2008-11-12",,,0.00,0.00,203.00
"US1AKBC0003","2008-11-13",,,5.00,8.00,203.00
"US1AKBC0003","2008-11-14",,,5.00,8.00,216.00
"US1AKBC0003","2008-11-16",,,18.00,23.00,216.00
"US1AKBC0003","2008-11-17",,,3.00,5.00,216.00
"US1AKBC0003","2008-11-24",,,23.00,28.00,229.00
"US1AKBC0003","2008-11-25",,,79.00,94.00,292.00
"US1AKBC0003","2008-11-26",,,28.00,36.00,330.00
"US1AKBC0003","2008-11-27",,,33.00,41.00,368.00
"US1AKBC0003","2008-11-28",,,0.00,0.00,356.00
"US1AKBC0003","2008-11-29",,,25.00,33.00,394.00
"US1AKBC0003","2008-11-30",,,0.00,0.00,381.00
"US1AKBC0003","2008-12-01",,,0.00,0.00,381.00
"US1AKBC0003","2008-12-02",,,0.00,0.00,368.00
"US1AKBC0003","2008-12-03",,,0.00,0.00,356.00
"US1AKBC0003","2008-12-04",,,13.00,13.00,305.00
"US1AKBC0003","2008-12-08",,,10.00,13.00,343.00
"US1AKBC0003","2008-12-09",,,0.00,0.00,318.00
"US1AKBC0003","2008-12-10",,,5.00,15.00,330.00
"US1AKBC0003","2008-12-11",,,46.00,58.00,381.00
"US1AKBC0003","2008-12-12",,,8.00,10.00,394.00
"US1AKBC0003","2008-12-13",,,5.00,8.00,381.00
"US1AKBC0003","2008-12-14",,,0.00,0.00,381.00
"US1AKBC0003","2008-12-15",,,53.00,66.00,445.00
"US1AKBC0003","2008-12-16",,,18.00,20.00,457.00
"US1AKBC0003","2008-12-17",,,0.00,0.00,445.00
"US1AKBC0003","2008-12-18",,,56.00,0.00,394.00
"US1AKBC0003","2008-12-19",,,13.00,,305.00
"US1AKBC0003","2008-12-20",,,0.00,0.00,305.00
"US1AKBC0003","2008-12-21",,,0.00,0.00,305.00
"US1AKBC0003","2009-01-01",,,5.00,8.00,826.00
"US1AKBC0003","2009-01-02",,,0.00,0.00,813.00
"US1AKBC0003","2009-01-03",,,0.00,0.00,787.00
"US1AKBC0003","2009-01-04",,,0.00,0.00,775.00
"US1AKBC0003","2009-01-05",,,0.00,0.00,762.00
"US1AKBC0003","2009-01-06",,,0.00,0.00,737.00
"US1AKBC0003","2009-01-07",,,0.00,0.00,724.00
"US1AKBC0003","2009-01-08",,,0.00,0.00,711.00
"US1AKBC0003","2009-01-09",,,0.00,0.00,711.00
"US1AKBC0003","2009-01-10",,,0.00,0.00,699.00
"US1AKBC0003","2009-01-12",,,15.00,20.00,737.00
"US1AKBC0003","2009-01-13",,,8.00,8.00,749.00
"US1AKBC0003","2009-01-14",,,178.00,208.00,953.00
"US1AKBC0003","2009-01-15",,,127.00,8.00,648.00
"US1AKBC0003","2009-01-16",,,51.00,,470.00
"US1AKBC0003","2009-01-17",,,0.00,0.00,419.00
"US1AKBC0003","2009-01-18",,,0.00,0.00,356.00
"US1AKBC0003","2009-01-19",,,5.00,8.00,330.00
"US1AKBC0003","2009-01-20",,,0.00,0.00,330.00
"US1AKBC0003","2009-01-21",,,0.00,0.00,330.00
"US1AKBC0003","2009-01-22",,,0.00,0.00,318.00
"US1AKBC0003","2009-01-23",,,0.00,0.00,318.00
"US1AKBC0003","2009-01-24",,,0.00,0.00,318.00
"US1AKBC0003","2009-01-25",,,13.00,18.00,330.00
"US1AKBC0003","2009-01-26",,,5.00,8.00,343.00
"US1AKBC0003","2009-01-27",,,8.00,10.00,356.00
"US1AKBC0003","2009-01-28",,,25.00,33.00,368.00
"US1AKBC0003","2009-01-29",,,0.00,0.00,368.00
"US1AKBC0003","2009-01-30",,,5.00,10.00,368.00
"US1AKBC0003","2009-01-31",,,0.00,0.00,368.00
"US1AKBC0003","2009-02-01",,,18.00,20.00,381.00
"US1AKBC0003","2009-02-02",,,0.00,0.00,381.00
"US1AKBC0003","2009-02-03",,,5.00,5.00,381.00
"US1AKBC0003","2009-02-04",,,15.00,18.00,406.00
"US1AKBC0003","2009-02-05",,,64.00,81.00,483.00
"US1AKBC0003","2009-02-06",,,178.00,211.00,597.00
"US1AKBC0003","2009-02-07",,,15.00,48.00,648.00
"US1AKBC0003","2009-02-08",,,0.00,0.00,648.00
"US1AKBC0003","2009-02-09",,,0.00,0.00,648.00
"US1AKBC0003","2009-02-11",,,15.00,48.00,699.00
"US1AKBC0003","2009-02-12",,,64.00,79.00,775.00
"US1AKBC0003","2009-02-13",,,0.00,0.00,737.00
"US1AKBC0003","2009-02-14",,,0.00,0.00,699.00
"US1AKBC0003","2009-02-15",,,5.00,58.00,762.00
"US1AKBC0003","2009-02-16",,,99.00,8.00,686.00
"US1AKBC0003","2009-03-13",,,61.00,74.00,1003.00
"US1AKBC0003","2009-03-14",,,20.00,28.00,1029.00
"US1AKBC0003","2009-03-15",,,0.00,0.00,1029.00
"US1AKBC0003","2009-03-23",,,0.00,0.00,953.00
"US1AKBC0003","2009-03-24",,,0.00,0.00,953.00
"US1AKBC0003","2009-03-25",,,5.00,8.00,953.00
"US1AKBC0003","2009-03-26",,,8.00,10.00,965.00
"US1AKBC0003","2009-03-27",,,0.00,0.00,965.00
"US1AKBC0003","2009-03-28",,,0.00,0.00,965.00
"US1AKBC0003","2009-03-29",,,5.00,8.00,978.00
"US1AKBC0003","2009-03-30",,,48.00,58.00,1016.00
"US1AKBC0003","2009-03-31",,,5.00,5.00,1029.00
"US1AKBC0003","2009-04-04",,,0.00,0.00,1118.00
"US1AKBC0003","2009-04-05",,,0.00,0.00,1118.00
"US1AKBC0003","2009-04-06",,,0.00,0.00,1067.00
"US1AKBC0003","2009-04-07",,,8.00,61.00,1105.00
"US1AKBC0003","2009-04-08",,,8.00,36.00,1143.00
"US1AKBC0003","2009-04-09",,,3.00,28.00,1168.00
"US1AKBC0003","2009-04-10",,,0.00,0.00,1168.00
"US1AKBC0003","2009-04-11",,,3.00,5.00,1168.00
"US1AKBC0003","2009-04-12",,,0.00,0.00,1168.00
"US1AKBC0003","2009-04-13",,,0.00,0.00,1168.00
"US1AKBC0003","2009-04-14",,,0.00,0.00,1168.00
"US1AKBC0003","2009-04-15",,,0.00,0.00,1168.00
"US1AKBC0003","2009-04-16",,,0.00,0.00,1143.00
"US1AKBC0003","2009-04-17",,,0.00,0.00,1130.00
"US1AKBC0003","2009-04-18",,,0.00,0.00,1067.00
"US1AKBC0003","2009-04-19",,,20.00,23.00,1092.00
"US1AKBC0003","2009-04-20",,,0.00,0.00,1092.00
"US1AKBC0003","2009-04-21",,,0.00,0.00,965.00
"US1AKBC0003","2009-04-22",,,3.00,0.00,889.00
"US1AKBC0003","2009-04-23",,,5.00,0.00,864.00
"US1AKBC0003","2009-04-24",,,5.00,0.00,762.00
"US1AKBC0003","2009-04-25",,,0.00,,762.00
"US1AKBC0003","2009-04-26",,,10.00,,660.00
"US1AKBC0003","2009-04-27",,,0.00,0.00,584.00
"US1AKBC0003","2009-04-28",,,0.00,0.00,457.00
"US1AKBC0003","2009-05-03",,,0.00,0.00,114.00
"US1AKBC0003","2009-05-18",,,107.00,,
"US1AKBC0003","2009-05-19",,,84.00,,
"US1AKBC0003","2009-05-20",,,10.00,,
"US1AKBC0003","2009-05-21",,,0.00,0.00,28.00
"US1AKBC0003","2009-05-22",,,0.00,0.00,
"US1AKBC0003","2009-05-23",,,8.00,,
"US1AKBC0003","2009-05-24",,,0.00,0.00,
"US1AKBC0003","2009-05-25",,,0.00,0.00,
"US1AKBC0003","2009-05-26",,,0.00,0.00,
"US1AKBC0003","2009-05-27",,,0.00,0.00,
"US1AKBC0003","2009-05-28",,,0.00,0.00,
"US1AKBC0003","2009-08-27",,,0.00,0.00,
"US1AKBC0003","2009-08-28",,,3.00,,
"US1AKBC0003","2009-08-29",,,0.00,0.00,
"US1AKBC0003","2009-08-30",,,5.00,,
"US1AKBC0003","2009-08-31",,,8.00,,
"US1AKBC0003","2009-09-01",,,74.00,,
"US1AKBC0003","2009-09-02",,,147.00,,
"US1AKBC0003","2009-09-03",,,5.00,,
"US1AKBC0003","2009-09-04",,,0.00,0.00,
"US1AKBC0003","2009-09-05",,,0.00,0.00,
"US1AKBC0003","2009-09-06",,,0.00,0.00,
"US1AKBC0003","2009-09-07",,,0.00,0.00,
"US1AKBC0003","2009-09-08",,,0.00,0.00,
"US1AKBC0003","2009-09-09",,,5.00,,
"US1AKBC0003","2009-09-10",,,5.00,,
"US1AKBC0003","2009-09-11",,,3.00,,
"US1AKBC0003","2009-09-14",,,13.00,,
"US1AKBC0003","2009-09-15",,,3.00,,
"US1AKBC0003","2009-09-21",,,0.00,0.00,
"US1AKBC0003","2009-09-22",,,13.00,5.00,5.00
"US1AKBC0003","2009-09-23",,,8.00,,
"US1AKBC0003","2009-09-24",,,13.00,,
"US1AKBC0003","2009-09-25",,,0.00,0.00,
"US1AKBC0003","2009-09-26",,,0.00,0.00,
"US1AKBC0003","2009-09-27",,,0.00,0.00,
"US1AKBC0003","2009-09-28",,,0.00,0.00,
"US1AKBC0003","2009-09-29",,,13.00,,
"US1AKBC0003","2009-09-30",,,23.00,,
"US1AKBC0003","2009-10-01",,,28.00,,
"US1AKBC0003","2009-10-03",,,188.00,,
"US1AKBC0003","2009-10-04",,,28.00,,
"US1AKBC0003","2009-10-05",,,99.00,,
"US1AKBC0003","2009-10-06",,,25.00,,
"US1AKBC0003","2009-10-07",,,79.00,,
"US1AKBC0003","2009-10-08",,,86.00,,
"US1AKBC0003","2009-10-09",,,94.00,,
"US1AKBC0003","2009-10-10",,,46.00,,
"US1AKBC0003","2009-10-11",,,28.00,,
"US1AKBC0003","2009-10-12",,,0.00,0.00,
"US1AKBC0003","2009-10-13",,,0.00,0.00,
"US1AKBC0003","2009-10-14",,,0.00,0.00,
"US1AKBC0003","2009-10-15",,,0.00,0.00,
"US1AKBC0003","2009-10-16",,,0.00,0.00,
"US1AKBC0003","2009-10-17",,,0.00,0.00,
"US1AKBC0003","2009-10-18",,,0.00,0.00,
"US1AKBC0003","2009-10-19",,,0.00,0.00,
"US1AKBC0003","2009-10-20",,,23.00,28.00,
"US1AKBC0003","2009-10-21",,,0.00,0.00,
"US1AKBC0003","2009-10-22",,,0.00,0.00,0.00
"US1AKBC0003","2009-10-23",,,0.00,0.00,20.00
"US1AKBC0003","2009-10-24",,,46.00,53.00,74.00
"US1AKBC0003","2009-10-25",,,23.00,36.00,109.00
"US1AKBC0003","2009-10-26",,,46.00,53.00,157.00
"US1AKBC0003","2009-10-27",,,0.00,0.00,152.00
"US1AKBC0003","2009-10-28",,,0.00,0.00,147.00
"US1AKBC0003","2009-10-29",,,0.00,0.00,147.00
"US1AKBC0003","2009-10-30",,,0.00,0.00,142.00
"US1AKBC0003","2009-10-31",,,0.00,0.00,135.00
"US1AKBC0003","2009-11-01",,,0.00,0.00,132.00
"US1AKBC0003","2009-11-02",,,0.00,0.00,130.00
"US1AKBC0003","2009-11-03",,,0.00,0.00,104.00
"US1AKBC0003","2009-11-04",,,5.00,5.00,107.00
"US1AKBC0003","2009-11-05",,,0.00,0.00,104.00
"US1AKBC0003","2009-11-06",,,0.00,0.00,104.00
"US1AKBC0003","2009-11-07",,,0.00,0.00,102.00
"US1AKBC0003","2009-11-08",,,0.00,0.00,99.00
"US1AKBC0003","2009-11-09",,,79.00,104.00,203.00
"US1AKBC0003","2009-11-10",,,74.00,81.00,284.00
"US1AKBC0003","2009-11-11",,,104.00,79.00,211.00
"US1AKBC0003","2009-11-12",,,41.00,58.00,236.00
"US1AKBC0003","2009-11-13",,,0.00,0.00,234.00
"US1AKBC0003","2009-11-14",,,0.00,0.00,231.00
"US1AKBC0003","2009-11-15",,,5.00,48.00,279.00
"US1AKBC0003","2009-11-16",,,0.00,0.00,274.00
"US1AKBC0003","2009-11-17",,,0.00,0.00,272.00
"US1AKBC0003","2009-11-19",,,0.00,0.00,269.00
"US1AKBC0003","2009-11-20",,,0.00,0.00,264.00
"US1AKBC0003","2009-11-21",,,0.00,0.00,257.00
"US1AKBC0003","2009-11-22",,,5.00,53.00,312.00
"US1AKBC0003","2009-11-23",,,5.00,46.00,333.00
"US1AKBC0003","2009-11-24",,,5.00,33.00,366.00
"US1AKBC0003","2009-11-25",,,3.00,8.00,363.00
"US1AKBC0003","2009-11-26",,,0.00,0.00,358.00
"US1AKBC0003","2009-11-27",,,3.00,30.00,384.00
"US1AKBC0003","2009-11-28",,,8.00,74.00,437.00
"US1AKBC0003","2009-12-10",,,0.00,0.00,140.00
"US1AKBC0003","2009-12-11",,,0.00,0.00,135.00
"US1AKBC0003","2009-12-14",,,0.00,0.00,127.00
"US1AKBC0003","2009-12-15",,,0.00,0.00,127.00
"US1AKBC0003","2009-12-16",,,15.00,18.00,152.00
"US1AKBC0003","2009-12-17",,,0.00,0.00,152.00
"US1AKBC0003","2009-12-18",,,10.00,15.00,165.00
"US1AKBC0003","2009-12-19",,,33.00,41.00,203.00
"US1AKBC0003","2009-12-20",,,30.00,30.00,229.00
"US1AKBC0003","2009-12-21",,,8.00,,127.00
"US1AKBC0003","2009-12-22",,,0.00,0.00,114.00
"US1AKBC0003","2010-01-04",,,61.00,74.00,165.00
"US1AKBC0003","2010-01-05",,,91.00,79.00,114.00
"US1AKBC0003","2010-01-08",,,0.00,0.00,102.00
"US1AKBC0003","2010-01-21",,,5.00,5.00,109.00
"US1AKBC0003","2010-02-02",,,0.00,0.00,165.00
"US1AKBC0003","2010-02-24",,,0.00,0.00,51.00
"US1AKBC0003","2010-02-25",,,0.00,0.00,51.00
"US1AKBC0003","2010-03-02",,,71.00,86.00,140.00
"US1AKBC0003","2010-03-06",,,5.00,58.00,114.00
"US1AKBC0003","2010-03-07",,,10.00,127.00,241.00
"US1AKBC0003","2010-03-08",,,3.00,28.00,254.00
"US1AKBC0003","2010-03-09",,,0.00,0.00,254.00
"US1AKBC0003","2010-03-10",,,5.00,33.00,279.00
"US1AKBC0003","2010-03-11",,,0.00,0.00,279.00
"US1AKBC0003","2010-03-12",,,0.00,0.00,279.00
"US1AKBC0003","2010-03-13",,,0.00,0.00,279.00
"US1AKBC0003","2010-03-14",,,0.00,0.00,267.00
"US1AKBC0003","2010-03-29",,,0.00,0.00,127.00
"US1AKBC0003","2010-03-30",,,38.00,43.00,191.00
"US1AKBC0003","2010-04-01",,,0.00,0.00,203.00
"US1AKBC0003","2010-04-02",,,15.00,20.00,216.00
"US1AKBC0003","2010-04-03",,,0.00,0.00,216.00
"US1AKBC0003","2010-04-04",,,0.00,0.00,216.00
"US1AKBC0003","2010-04-05",,,41.00,48.00,241.00
"US1AKBC0003","2010-04-06",,,5.00,36.00,254.00
"US1AKBC0003","2010-04-07",,,8.00,28.00,254.00
"US1AKBC0003","2010-04-08",,,5.00,13.00,229.00
